^^
WestSenecaWeather Station Historical Data
 
Daily Summary for June 24, 2019 Units:  English    Metric   Both
Daily Weekly Monthly Yearly Custom
  Current: High: Low: Average:
Temperature: 72.1 °F 87.7 °F 56.6 °F 71.8 °F
Dew Point: 69.3 °F 69.4 °F 51.2 °F 61.2 °F
Humidity: 91% 91% 53% 70%
Wind Speed: 0mph 11.5mph 0mph 2.2mph
Wind Gust: 0mph 9.7mph - -
WindCalm - - SW
Pressure: 29.61 in 29.88 in 29.61 in -
Precipitation: 0.06 in      
Historical Graphs
 
 
Tabular Data for June 24, 2019
Time Temperature Dew Point Pressure Wind Wind Speed Wind Gust Humidity Rainfall Rate (Hourly) solar
00:04 59.3 °F 53.8 °F 29.87 in Calm     82% 0 in WeatherDisplay:10.37 W/m2
00:09 59 °F 53.5 °F 29.87 in Calm     82% 0 in WeatherDisplay:10.37 W/m2
00:14 58.8 °F 53.3 °F 29.88 in Calm     82% 0 in WeatherDisplay:10.37 W/m2
00:19 58.6 °F 53.1 °F 29.87 in Calm     82% 0 in WeatherDisplay:10.37 W/m2
00:24 58.4 °F 52.9 °F 29.87 in Calm     82% 0 in WeatherDisplay:10.37 W/m2
00:29 58.3 °F 53.2 °F 29.87 in Calm     83% 0 in WeatherDisplay:10.37 W/m2
00:34 58.1 °F 53 °F 29.87 in Calm     83% 0 in WeatherDisplay:10.37 W/m2
00:39 57.9 °F 53.1 °F 29.87 in Calm     84% 0 in WeatherDisplay:10.37 W/m2
00:44 57.8 °F 53 °F 29.87 in Calm     84% 0 in WeatherDisplay:10.37 W/m2
00:49 57.7 °F 52.9 °F 29.87 in Calm     84% 0 in WeatherDisplay:10.37 W/m2
00:54 57.5 °F 52.7 °F 29.87 in Calm     84% 0 in WeatherDisplay:10.37 W/m2
00:59 57.3 °F 52.5 °F 29.87 in Calm     84% 0 in WeatherDisplay:10.37 W/m2
01:04 57.1 °F 52.3 °F 29.87 in Calm     84% 0 in WeatherDisplay:10.37 W/m2
01:09 56.9 °F 52.4 °F 29.87 in Calm     85% 0 in WeatherDisplay:10.37 W/m2
01:14 56.8 °F 52.3 °F 29.86 in Calm     85% 0 in WeatherDisplay:10.37 W/m2
01:19 56.7 °F 52.2 °F 29.86 in Calm     85% 0 in WeatherDisplay:10.37 W/m2
01:24 56.7 °F 52.2 °F 29.86 in Calm     85% 0 in WeatherDisplay:10.37 W/m2
01:29 57 °F 52.2 °F 29.86 in Calm     84% 0 in WeatherDisplay:10.37 W/m2
01:34 57.2 °F 52.1 °F 29.86 in Calm     83% 0 in WeatherDisplay:10.37 W/m2
01:39 57.5 °F 52.4 °F 29.85 in Calm     83% 0 in WeatherDisplay:10.37 W/m2
01:44 57.6 °F 52.1 °F 29.85 in Calm     82% 0 in WeatherDisplay:10.37 W/m2
01:49 57.6 °F 52.1 °F 29.84 in Calm     82% 0 in WeatherDisplay:10.37 W/m2
01:54 57.7 °F 51.9 °F 29.84 in WSW 1 mph 0.2 mph 81% 0 in WeatherDisplay:10.37 W/m2
01:59 57.7 °F 51.9 °F 29.84 in WSW 1 mph 0.1 mph 81% 0 in WeatherDisplay:10.37 W/m2
02:04 57.8 °F 52 °F 29.84 in Calm     81% 0 in WeatherDisplay:10.37 W/m2
02:09 57.7 °F 51.9 °F 29.84 in Calm     81% 0 in WeatherDisplay:10.37 W/m2
02:14 57.7 °F 51.9 °F 29.84 in Calm     81% 0 in WeatherDisplay:10.37 W/m2
02:19 57.6 °F 51.8 °F 29.84 in Calm     81% 0 in WeatherDisplay:10.37 W/m2
02:24 57.4 °F 51.6 °F 29.84 in Calm     81% 0 in WeatherDisplay:10.37 W/m2
02:29 57.3 °F 51.5 °F 29.84 in Calm     81% 0 in WeatherDisplay:10.37 W/m2
02:34 57.2 °F 51.4 °F 29.84 in Calm     81% 0 in WeatherDisplay:10.37 W/m2
02:39 57.1 °F 51.7 °F 29.84 in Calm     82% 0 in WeatherDisplay:10.37 W/m2
02:44 57 °F 51.6 °F 29.84 in Calm     82% 0 in WeatherDisplay:10.37 W/m2
02:49 56.9 °F 51.5 °F 29.84 in Calm     82% 0 in WeatherDisplay:10.37 W/m2
02:54 56.9 °F 51.5 °F 29.84 in Calm     82% 0 in WeatherDisplay:10.37 W/m2
02:59 56.9 °F 51.5 °F 29.84 in Calm     82% 0 in WeatherDisplay:10.37 W/m2
03:04 56.9 °F 51.5 °F 29.84 in Calm     82% 0 in WeatherDisplay:10.37 W/m2
03:09 56.8 °F 51.7 °F 29.84 in Calm     83% 0 in WeatherDisplay:10.37 W/m2
03:14 56.8 °F 51.7 °F 29.84 in Calm     83% 0 in WeatherDisplay:10.37 W/m2
03:19 56.7 °F 51.6 °F 29.84 in Calm     83% 0 in WeatherDisplay:10.37 W/m2
03:24 56.7 °F 51.6 °F 29.83 in Calm     83% 0 in WeatherDisplay:10.37 W/m2
03:29 56.7 °F 51.6 °F 29.83 in Calm     83% 0 in WeatherDisplay:10.37 W/m2
03:34 56.8 °F 51.7 °F 29.83 in Calm     83% 0 in WeatherDisplay:10.37 W/m2
03:39 56.8 °F 51.4 °F 29.83 in Calm     82% 0 in WeatherDisplay:10.37 W/m2
03:44 57 °F 51.6 °F 29.84 in Calm     82% 0 in WeatherDisplay:10.37 W/m2
03:49 57.1 °F 51.3 °F 29.84 in Calm     81% 0 in WeatherDisplay:10.37 W/m2
03:54 57.3 °F 51.5 °F 29.83 in Calm     81% 0 in WeatherDisplay:10.37 W/m2
03:59 57.3 °F 51.5 °F 29.83 in Calm     81% 0 in WeatherDisplay:10.37 W/m2
04:04 57.4 °F 51.6 °F 29.83 in Calm     81% 0 in WeatherDisplay:10.37 W/m2
04:09 57.5 °F 51.4 °F 29.83 in Calm     80% 0 in WeatherDisplay:10.37 W/m2
04:14 57.5 °F 51.4 °F 29.83 in Calm     80% 0 in WeatherDisplay:10.37 W/m2
04:19 57.5 °F 51.4 °F 29.83 in Calm     80% 0 in WeatherDisplay:10.37 W/m2
04:24 57.5 °F 51.4 °F 29.83 in Calm     80% 0 in WeatherDisplay:10.37 W/m2
04:29 57.4 °F 51.6 °F 29.83 in Calm     81% 0 in WeatherDisplay:10.37 W/m2
04:34 57.3 °F 51.5 °F 29.83 in Calm     81% 0 in WeatherDisplay:10.37 W/m2
04:39 57.2 °F 51.4 °F 29.83 in Calm     81% 0 in WeatherDisplay:10.37 W/m2
04:44 57.1 °F 51.3 °F 29.83 in Calm     81% 0 in WeatherDisplay:10.37 W/m2
04:49 57 °F 51.2 °F 29.82 in Calm     81% 0 in WeatherDisplay:10.37 W/m2
04:54 56.9 °F 51.5 °F 29.82 in Calm     82% 0 in WeatherDisplay:10.37 W/m2
04:59 56.9 °F 51.5 °F 29.83 in Calm     82% 0 in WeatherDisplay:10.37 W/m2
05:04 56.8 °F 51.4 °F 29.83 in Calm     82% 0 in WeatherDisplay:10.37 W/m2
05:09 56.7 °F 51.3 °F 29.83 in Calm     82% 0 in WeatherDisplay:10.37 W/m2
05:14 56.7 °F 51.6 °F 29.83 in Calm     83% 0 in WeatherDisplay:10.37 W/m2
05:19 56.6 °F 51.5 °F 29.82 in Calm     83% 0 in WeatherDisplay:10.37 W/m2
05:24 56.7 °F 51.9 °F 29.82 in Calm     84% 0 in WeatherDisplay:10.37 W/m2
05:29 56.7 °F 51.9 °F 29.82 in Calm     84% 0 in WeatherDisplay:10.37 W/m2
05:34 56.9 °F 52.1 °F 29.82 in Calm     84% 0 in WeatherDisplay:10.37 W/m2
05:39 57.1 °F 52.3 °F 29.82 in Calm     84% 0 in WeatherDisplay:10.37 W/m2
05:44 57.3 °F 52.2 °F 29.82 in Calm     83% 0 in WeatherDisplay:10.37 W/m2
05:49 57.6 °F 52.5 °F 29.83 in Calm     83% 0 in WeatherDisplay:10.37 W/m2
05:54 58 °F 52.5 °F 29.83 in Calm     82% 0 in WeatherDisplay:10.37 W/m2
05:59 58.4 °F 52.6 °F 29.83 in Calm     81% 0 in WeatherDisplay:10.37 W/m2
06:04 58.9 °F 52.7 °F 29.82 in Calm     80% 0 in WeatherDisplay:10.37 W/m2
06:09 59.5 °F 53 °F 29.82 in Calm     79% 0 in WeatherDisplay:10.37 W/m2
06:14 59.8 °F 52.9 °F 29.82 in Calm     78% 0 in WeatherDisplay:10.37 W/m2
06:19 60.1 °F 52.9 °F 29.82 in West 1.2 mph 0.9 mph 77% 0 in WeatherDisplay:10.37 W/m2
06:24 60.3 °F 53.1 °F 29.82 in West 1.2 mph 0.7 mph 77% 0 in WeatherDisplay:10.37 W/m2
06:29 60.5 °F 53.3 °F 29.82 in West 1.2 mph   77% 0 in WeatherDisplay:10.37 W/m2
06:34 60.6 °F 53.3 °F 29.81 in West 2.3 mph 0.6 mph 77% 0 in WeatherDisplay:10.37 W/m2
06:39 60.8 °F 53.5 °F 29.81 in West 1.2 mph   77% 0 in WeatherDisplay:10.37 W/m2
06:44 60.9 °F 53.3 °F 29.81 in Calm     76% 0 in WeatherDisplay:10.37 W/m2
06:49 61.1 °F 53.5 °F 29.81 in Calm     76% 0 in WeatherDisplay:10.37 W/m2
06:54 61.3 °F 53.7 °F 29.82 in Calm     76% 0 in WeatherDisplay:10.37 W/m2
06:59 61.5 °F 53.9 °F 29.82 in Calm     76% 0 in WeatherDisplay:10.37 W/m2
07:04 61.7 °F 54.1 °F 29.82 in Calm     76% 0 in WeatherDisplay:10.37 W/m2
07:09 61.9 °F 53.9 °F 29.81 in Calm     75% 0 in WeatherDisplay:10.37 W/m2
07:14 62.1 °F 54.1 °F 29.81 in Calm     75% 0 in WeatherDisplay:10.37 W/m2
07:19 62.4 °F 54 °F 29.81 in Calm     74% 0 in WeatherDisplay:10.37 W/m2
07:24 62.7 °F 54.3 °F 29.81 in WSW 1.2 mph 0.9 mph 74% 0 in WeatherDisplay:10.37 W/m2
07:29 63.1 °F 54.7 °F 29.81 in WSW 2.3 mph 1 mph 74% 0 in WeatherDisplay:10.37 W/m2
07:34 63.5 °F 54.7 °F 29.81 in Calm     73% 0 in WeatherDisplay:10.37 W/m2
07:39 63.8 °F 55 °F 29.81 in WSW 2 mph 0.6 mph 73% 0 in WeatherDisplay:10.37 W/m2
07:44 64.1 °F 54.9 °F 29.81 in WSW 2.3 mph 0.7 mph 72% 0 in WeatherDisplay:10.37 W/m2
07:49 64.5 °F 55.3 °F 29.81 in SW 3.5 mph 1.3 mph 72% 0 in WeatherDisplay:10.37 W/m2
07:54 64.8 °F 55.6 °F 29.81 in SW 1.2 mph 0.9 mph 72% 0 in WeatherDisplay:10.37 W/m2
07:59 65.2 °F 55.6 °F 29.81 in SW 3.5 mph 1.6 mph 71% 0 in WeatherDisplay:10.37 W/m2
08:04 65.5 °F 55.8 °F 29.81 in SW 3.5 mph 1 mph 71% 0 in WeatherDisplay:10.37 W/m2
08:09 65.8 °F 55.7 °F 29.80 in SW 2.3 mph 1.6 mph 70% 0 in WeatherDisplay:10.37 W/m2
08:14 66.2 °F 56.1 °F 29.81 in Calm     70% 0 in WeatherDisplay:10.37 W/m2
08:19 66.5 °F 56.4 °F 29.81 in Calm     70% 0 in WeatherDisplay:10.37 W/m2
08:24 66.8 °F 56.7 °F 29.80 in SW 3 mph 1.5 mph 70% 0 in WeatherDisplay:10.37 W/m2
08:29 67.1 °F 57 °F 29.80 in SW 2.3 mph 0.8 mph 70% 0 in WeatherDisplay:10.37 W/m2
08:34 67.3 °F 57.2 °F 29.79 in SSW 2.3 mph 1.5 mph 70% 0 in WeatherDisplay:10.37 W/m2
08:39 67.5 °F 57.4 °F 29.79 in SSW 2.3 mph 1.5 mph 70% 0 in WeatherDisplay:10.37 W/m2
08:44 67.6 °F 57.1 °F 29.79 in SSW 3.5 mph 2 mph 69% 0 in WeatherDisplay:10.37 W/m2
08:49 67.9 °F 57.8 °F 29.79 in SSW 1 mph 0.7 mph 70% 0 in WeatherDisplay:10.37 W/m2
08:54 68.3 °F 58.1 °F 29.79 in West 1.2 mph 0.7 mph 70% 0 in WeatherDisplay:10.37 W/m2
08:59 68.7 °F 58.5 °F 29.80 in Calm   0.1 mph 70% 0 in WeatherDisplay:10.37 W/m2
09:04 69.1 °F 58.5 °F 29.80 in West 3.5 mph 1.2 mph 69% 0 in WeatherDisplay:10.37 W/m2
09:09 69.3 °F 58.3 °F 29.80 in WNW 2.3 mph 2.1 mph 68% 0 in WeatherDisplay:10.37 W/m2
09:14 69.5 °F 58.1 °F 29.79 in WNW 3.5 mph 1.8 mph 67% 0 in WeatherDisplay:10.37 W/m2
09:19 69.7 °F 58.3 °F 29.79 in WNW 3.5 mph 2.8 mph 67% 0 in WeatherDisplay:10.37 W/m2
09:24 69.8 °F 58.3 °F 29.79 in WNW 3.5 mph 2 mph 67% 0 in WeatherDisplay:10.37 W/m2
09:29 70 °F 59 °F 29.79 in WNW 2 mph 1.7 mph 68% 0 in WeatherDisplay:10.37 W/m2
09:34 70.3 °F 58.8 °F 29.79 in WNW 4.6 mph 2 mph 67% 0 in WeatherDisplay:10.37 W/m2
09:39 70.6 °F 59.1 °F 29.78 in NW 3.5 mph 2.8 mph 67% 0 in WeatherDisplay:10.37 W/m2
09:44 70.9 °F 59.4 °F 29.78 in West 3.5 mph 1.5 mph 67% 0 in WeatherDisplay:10.37 W/m2
09:49 71.2 °F 59.7 °F 29.78 in WSW 3.5 mph 1.3 mph 67% 0 in WeatherDisplay:10.37 W/m2
09:54 71.5 °F 59.5 °F 29.78 in WNW 3.5 mph 2.7 mph 66% 0 in WeatherDisplay:10.37 W/m2
09:59 71.9 °F 59.9 °F 29.78 in WSW 3.5 mph 1.7 mph 66% 0 in WeatherDisplay:10.37 W/m2
10:04 72.3 °F 60.3 °F 29.78 in WNW 3 mph 1.8 mph 66% 0 in WeatherDisplay:10.37 W/m2
10:09 72.6 °F 60.2 °F 29.78 in WNW 3.5 mph 2.3 mph 65% 0 in WeatherDisplay:10.37 W/m2
10:14 72.9 °F 60.4 °F 29.78 in SW 3.5 mph 1.2 mph 65% 0 in WeatherDisplay:10.37 W/m2
10:19 73.2 °F 61.2 °F 29.78 in SW 2.3 mph   66% 0 in WeatherDisplay:10.37 W/m2
10:24 73.4 °F 60.9 °F 29.78 in SW 2 mph 1.4 mph 65% 0 in WeatherDisplay:10.37 W/m2
10:29 73.5 °F 60.6 °F 29.79 in SW 2.3 mph 0.8 mph 64% 0 in WeatherDisplay:10.37 W/m2
10:34 73.6 °F 61.1 °F 29.78 in SW 3.5 mph 0.8 mph 65% 0 in WeatherDisplay:10.37 W/m2
10:39 73.6 °F 61.5 °F 29.78 in SW 1.2 mph   66% 0 in WeatherDisplay:10.37 W/m2
10:44 73.7 °F 62.1 °F 29.78 in Calm     67% 0 in WeatherDisplay:10.37 W/m2
10:49 73.8 °F 61.7 °F 29.78 in Calm     66% 0 in WeatherDisplay:10.37 W/m2
10:54 73.9 °F 61.8 °F 29.78 in SW 2.3 mph 0.2 mph 66% 0 in WeatherDisplay:10.37 W/m2
10:59 74 °F 61.9 °F 29.77 in Calm     66% 0 in WeatherDisplay:10.37 W/m2
11:04 74.1 °F 61.6 °F 29.77 in West 3 mph 2.3 mph 65% 0 in WeatherDisplay:10.37 W/m2
11:09 74.1 °F 61.6 °F 29.77 in WNW 4 mph 2.3 mph 65% 0 in WeatherDisplay:10.37 W/m2
11:14 74 °F 61 °F 29.77 in WNW 3.5 mph 2.4 mph 64% 0 in WeatherDisplay:10.37 W/m2
11:19 73.9 °F 61.8 °F 29.77 in WNW 2.3 mph 1.9 mph 66% 0 in WeatherDisplay:10.37 W/m2
11:24 74 °F 61.5 °F 29.78 in WNW 1.2 mph 1 mph 65% 0 in WeatherDisplay:10.37 W/m2
11:29 74 °F 60.6 °F 29.77 in WNW 4.6 mph 3.1 mph 63% 0 in WeatherDisplay:10.37 W/m2
11:34 73.8 °F 60.9 °F 29.77 in WNW 4 mph 3.2 mph 64% 0 in WeatherDisplay:10.37 W/m2
11:39 73.7 °F 60.3 °F 29.77 in WNW 5 mph 4.1 mph 63% 0 in WeatherDisplay:10.37 W/m2
11:44 73.8 °F 61.3 °F 29.77 in NW 3.5 mph 1.8 mph 65% 0 in WeatherDisplay:10.37 W/m2
11:49 73.9 °F 61.8 °F 29.77 in NW 4 mph 3.3 mph 66% 0 in WeatherDisplay:10.37 W/m2
11:54 73.8 °F 62.2 °F 29.76 in WNW 2.3 mph 1.4 mph 67% 0 in WeatherDisplay:10.37 W/m2
11:59 73.8 °F 62.6 °F 29.77 in WNW 2.3 mph 0.9 mph 68% 0 in WeatherDisplay:10.37 W/m2
12:04 73.9 °F 62.2 °F 29.77 in South 3.5 mph 2 mph 67% 0 in WeatherDisplay:10.37 W/m2
12:09 74 °F 62.8 °F 29.76 in West 2.3 mph 1 mph 68% 0 in WeatherDisplay:10.37 W/m2
12:14 74.3 °F 63.1 °F 29.76 in West 3.5 mph 2.3 mph 68% 0 in WeatherDisplay:10.37 W/m2
12:19 74.2 °F 63 °F 29.76 in WNW 4.6 mph 2.3 mph 68% 0 in WeatherDisplay:10.37 W/m2
12:24 74.3 °F 63.1 °F 29.75 in WSW 4.6 mph 3.3 mph 68% 0 in WeatherDisplay:10.37 W/m2
12:29 74.7 °F 63.9 °F 29.75 in West 3.5 mph 2.5 mph 69% 0 in WeatherDisplay:10.37 W/m2
12:34 75.1 °F 63.8 °F 29.75 in WNW 5.8 mph 3.2 mph 68% 0 in WeatherDisplay:10.37 W/m2
12:39 75.5 °F 63.8 °F 29.75 in NW 8.1 mph 4.3 mph 67% 0 in WeatherDisplay:10.37 W/m2
12:44 76.2 °F 64 °F 29.74 in WNW 11.5 mph 5.2 mph 66% 0 in WeatherDisplay:10.37 W/m2
12:49 76.7 °F 64.9 °F 29.74 in WNW 6.9 mph 4.8 mph 67% 0 in WeatherDisplay:10.37 W/m2
12:54 77.2 °F 65 °F 29.74 in SW 5.8 mph 2.9 mph 66% 0 in WeatherDisplay:10.37 W/m2
12:59 77.7 °F 65.9 °F 29.74 in SW 3.5 mph 2.9 mph 67% 0 in WeatherDisplay:10.37 W/m2
13:04 78.4 °F 65.2 °F 29.74 in WNW 4.6 mph 4.4 mph 64% 0 in WeatherDisplay:10.37 W/m2
13:09 78.9 °F 65.7 °F 29.74 in West 4.6 mph 3.4 mph 64% 0 in WeatherDisplay:10.37 W/m2
13:14 78.9 °F 65.7 °F 29.74 in WNW 4.6 mph 3.7 mph 64% 0 in WeatherDisplay:10.37 W/m2
13:19 79.1 °F 65.9 °F 29.73 in NW 3.5 mph 1.4 mph 64% 0 in WeatherDisplay:10.37 W/m2
13:24 79.1 °F 65.9 °F 29.73 in WNW 6 mph 3.5 mph 64% 0 in WeatherDisplay:10.37 W/m2
13:29 79.2 °F 66.4 °F 29.73 in WSW 3.5 mph 2.8 mph 65% 0 in WeatherDisplay:10.37 W/m2
13:34 79.9 °F 66.6 °F 29.73 in West 3.5 mph 1.4 mph 64% 0 in WeatherDisplay:10.37 W/m2
13:39 80.6 °F 66.4 °F 29.72 in WSW 3.5 mph 1.7 mph 62% 0 in WeatherDisplay:10.37 W/m2
13:44 80.9 °F 67.1 °F 29.72 in WNW 6 mph 4.6 mph 63% 0 in WeatherDisplay:10.37 W/m2
13:49 81.2 °F 67.4 °F 29.72 in SW 3.5 mph 1.4 mph 63% 0 in WeatherDisplay:10.37 W/m2
13:54 82 °F 67.7 °F 29.72 in SSW 3 mph 2.4 mph 62% 0 in WeatherDisplay:10.37 W/m2
13:59 82.7 °F 67.9 °F 29.71 in NNW 4.6 mph 2.2 mph 61% 0 in WeatherDisplay:10.37 W/m2
14:04 82.9 °F 68.1 °F 29.71 in NW 8.1 mph 3.7 mph 61% 0 in WeatherDisplay:10.37 W/m2
14:09 83 °F 67.7 °F 29.71 in NW 9.2 mph 9.7 mph 60% 0 in WeatherDisplay:10.37 W/m2
14:14 83.2 °F 67.9 °F 29.71 in NW 9.2 mph 2.4 mph 60% 0 in WeatherDisplay:10.37 W/m2
14:19 83.6 °F 67.3 °F 29.71 in NW 8.1 mph 4.2 mph 58% 0 in WeatherDisplay:10.37 W/m2
14:24 83.7 °F 67.8 °F 29.71 in WNW 8.1 mph 5.7 mph 59% 0 in WeatherDisplay:10.37 W/m2
14:29 83.6 °F 67.3 °F 29.71 in WNW 9.2 mph 2.8 mph 58% 0 in WeatherDisplay:10.37 W/m2
14:34 83.8 °F 67.9 °F 29.71 in WNW 8.1 mph 5.1 mph 59% 0 in WeatherDisplay:10.37 W/m2
14:39 84.3 °F 67.9 °F 29.71 in WNW 9 mph 4.3 mph 58% 0 in WeatherDisplay:10.37 W/m2
14:44 84.5 °F 67.6 °F 29.71 in WNW 4.6 mph 4.1 mph 57% 0 in WeatherDisplay:10.37 W/m2
14:49 84.7 °F 67.8 °F 29.71 in NNW 5.8 mph 4.5 mph 57% 0 in WeatherDisplay:10.37 W/m2
14:54 84.8 °F 68.4 °F 29.70 in NNW 4.6 mph 2.7 mph 58% 0 in WeatherDisplay:10.37 W/m2
14:59 84.8 °F 67.9 °F 29.70 in NW 4.6 mph 3.2 mph 57% 0 in WeatherDisplay:10.37 W/m2
15:04 85.2 °F 67.7 °F 29.70 in WNW 7 mph 5.7 mph 56% 0 in WeatherDisplay:10.37 W/m2
15:09 85 °F 68.1 °F 29.70 in WNW 3.5 mph 2.4 mph 57% 0 in WeatherDisplay:10.37 W/m2
15:14 85.1 °F 67.6 °F 29.70 in NNW 3.5 mph 3.6 mph 56% 0 in WeatherDisplay:10.37 W/m2
15:19 85.2 °F 67.7 °F 29.69 in NW 3.5 mph 2.8 mph 56% 0 in WeatherDisplay:10.37 W/m2
15:24 85.4 °F 68.9 °F 29.69 in NW 3.5 mph 1.2 mph 58% 0 in WeatherDisplay:10.37 W/m2
15:29 85.9 °F 68.9 °F 29.69 in NNE 3.5 mph 1.8 mph 57% 0 in WeatherDisplay:10.37 W/m2
15:34 85.9 °F 67.9 °F 29.69 in NE 5.8 mph 3.7 mph 55% 0 in WeatherDisplay:10.37 W/m2
15:39 86.2 °F 68.7 °F 29.69 in North 4.6 mph 2.3 mph 56% 0 in WeatherDisplay:10.37 W/m2
15:44 86.1 °F 68.6 °F 29.69 in ENE 5.8 mph 4 mph 56% 0 in WeatherDisplay:10.37 W/m2
15:49 86.1 °F 68 °F 29.68 in ENE 3.5 mph 1.7 mph 55% 0 in WeatherDisplay:10.37 W/m2
15:54 86.3 °F 69.3 °F 29.68 in NNW 3.5 mph 2.4 mph 57% 0 in WeatherDisplay:10.37 W/m2
15:59 86.6 °F 68.5 °F 29.68 in WNW 3.5 mph 2.5 mph 55% 0 in WeatherDisplay:10.37 W/m2
16:04 87 °F 69.4 °F 29.68 in NNW 3 mph 1.6 mph 56% 0 in WeatherDisplay:10.37 W/m2
16:09 87.3 °F 68.1 °F 29.68 in ENE 4 mph 3.2 mph 53% 0 in WeatherDisplay:10.37 W/m2
16:14 87.5 °F 69.3 °F 29.67 in North 3 mph 2.4 mph 55% 0 in WeatherDisplay:10.37 W/m2
16:19 87.7 °F 68.4 °F 29.67 in WNW 4.6 mph 3.4 mph 53% 0 in WeatherDisplay:10.37 W/m2
16:24 87.5 °F 68.3 °F 29.67 in NNW 6.9 mph 4.3 mph 53% 0 in WeatherDisplay:10.37 W/m2
16:29 87.3 °F 68.1 °F 29.67 in ENE 8 mph 5.2 mph 53% 0 in WeatherDisplay:10.37 W/m2
16:34 87 °F 68.3 °F 29.67 in NE 3.5 mph 1.2 mph 54% 0 in WeatherDisplay:10.37 W/m2
16:39 87.5 °F 68.8 °F 29.67 in NNE 6.9 mph 2.8 mph 54% 0 in WeatherDisplay:10.37 W/m2
16:44 87.5 °F 68.8 °F 29.67 in NE 5 mph 5.9 mph 54% 0 in WeatherDisplay:10.37 W/m2
16:49 87.7 °F 69 °F 29.66 in NNW 3 mph 2.2 mph 54% 0 in WeatherDisplay:10.37 W/m2
16:54 87.7 °F 68.4 °F 29.66 in NNW 3.5 mph 2.3 mph 53% 0 in WeatherDisplay:10.37 W/m2
16:59 87.7 °F 68.4 °F 29.67 in North 3.5 mph 0.6 mph 53% 0 in WeatherDisplay:10.37 W/m2
17:04 87.2 °F 68.5 °F 29.66 in NW 5.8 mph 2.1 mph 54% 0 in WeatherDisplay:10.37 W/m2
17:09 87 °F 68.9 °F 29.66 in NE 3.5 mph 3.7 mph 55% 0 in WeatherDisplay:10.37 W/m2
17:14 86.8 °F 68.2 °F 29.66 in WNW 3.5 mph 1.7 mph 54% 0 in WeatherDisplay:10.37 W/m2
17:19 86.9 °F 68.3 °F 29.66 in NW 3.5 mph 1.5 mph 54% 0 in WeatherDisplay:10.37 W/m2
17:24 86.8 °F 68.7 °F 29.66 in North 3 mph 2.2 mph 55% 0 in WeatherDisplay:10.37 W/m2
17:29 86.6 °F 68 °F 29.66 in NNW 3.5 mph 1.5 mph 54% 0 in WeatherDisplay:10.37 W/m2
17:34 86.2 °F 68.1 °F 29.66 in East 7 mph 3.2 mph 55% 0 in WeatherDisplay:10.37 W/m2
17:39 85.4 °F 68.4 °F 29.65 in NE 4 mph 3.1 mph 57% 0 in WeatherDisplay:10.37 W/m2
17:44 84.9 °F 68.5 °F 29.65 in NNE 4.6 mph 3.1 mph 58% 0 in WeatherDisplay:10.37 W/m2
17:49 84.8 °F 68.4 °F 29.65 in ENE 3.5 mph 3.3 mph 58% 0 in WeatherDisplay:10.37 W/m2
17:54 84.7 °F 67.8 °F 29.65 in ENE 5.8 mph 4.3 mph 57% 0 in WeatherDisplay:10.37 W/m2
17:59 84.7 °F 68.3 °F 29.65 in NE 4 mph 2.1 mph 58% 0 in WeatherDisplay:10.37 W/m2
18:04 84.8 °F 67.9 °F 29.65 in NNE 3.5 mph 2.4 mph 57% 0 in WeatherDisplay:10.37 W/m2
18:09 85 °F 67.5 °F 29.65 in NE 5.8 mph 3.1 mph 56% 0 in WeatherDisplay:10.37 W/m2
18:14 84.8 °F 67.4 °F 29.65 in NNW 3.5 mph 1.7 mph 56% 0 in WeatherDisplay:10.37 W/m2
18:19 84.9 °F 67.5 °F 29.65 in NW 3.5 mph 1.6 mph 56% 0 in WeatherDisplay:10.37 W/m2
18:24 84.9 °F 68 °F 29.64 in ENE 3.5 mph 2.6 mph 57% 0 in WeatherDisplay:10.37 W/m2
18:29 84.6 °F 67.7 °F 29.64 in ENE 4.6 mph 1.8 mph 57% 0 in WeatherDisplay:10.37 W/m2
18:34 85 °F 68.6 °F 29.64 in East 1.2 mph   58% 0 in WeatherDisplay:10.37 W/m2
18:39 85.6 °F 68.1 °F 29.64 in ENE 2.3 mph 1.4 mph 56% 0 in WeatherDisplay:10.37 W/m2
18:44 85.9 °F 68.4 °F 29.64 in ENE 5 mph 1.9 mph 56% 0 in WeatherDisplay:10.37 W/m2
18:49 85.7 °F 68.2 °F 29.64 in ENE 2.3 mph 1 mph 56% 0 in WeatherDisplay:10.37 W/m2
18:54 85.3 °F 67.8 °F 29.64 in NW 4 mph 1.2 mph 56% 0 in WeatherDisplay:10.37 W/m2
18:59 84.5 °F 67.6 °F 29.64 in NNE 4 mph 2 mph 57% 0 in WeatherDisplay:10.37 W/m2
19:04 83.6 °F 66.8 °F 29.64 in ENE 5 mph 1.1 mph 57% 0 in WeatherDisplay:10.37 W/m2
19:09 82.9 °F 67.6 °F 29.64 in East 4.6 mph 0.7 mph 60% 0 in WeatherDisplay:10.37 W/m2
19:14 82.9 °F 67.6 °F 29.64 in ENE 4 mph 1.7 mph 60% 0 in WeatherDisplay:10.37 W/m2
19:19 82.5 °F 66.7 °F 29.65 in North 5.8 mph 2.5 mph 59% 0 in WeatherDisplay:10.37 W/m2
19:24 82.1 °F 66.8 °F 29.64 in NNW 5.8 mph 2.2 mph 60% 0 in WeatherDisplay:10.37 W/m2
19:29 82 °F 67.2 °F 29.64 in NNW 3.5 mph 2.3 mph 61% 0 in WeatherDisplay:10.37 W/m2
19:34 82.1 °F 67.3 °F 29.64 in NNW 4 mph 2.5 mph 61% 0 in WeatherDisplay:10.37 W/m2
19:39 82.2 °F 66.9 °F 29.64 in North 2.3 mph 0.9 mph 60% 0 in WeatherDisplay:10.37 W/m2
19:44 82.4 °F 67.1 °F 29.64 in North 3.5 mph 1.5 mph 60% 0 in WeatherDisplay:10.37 W/m2
19:49 82.4 °F 67.6 °F 29.64 in North 2.3 mph 1.4 mph 61% 0 in WeatherDisplay:10.37 W/m2
19:54 82.3 °F 67.5 °F 29.64 in North 2.3 mph 1 mph 61% 0 in WeatherDisplay:10.37 W/m2
19:59 82.1 °F 67.3 °F 29.64 in Calm     61% 0 in WeatherDisplay:10.37 W/m2
20:04 82 °F 67.2 °F 29.64 in Calm     61% 0 in WeatherDisplay:10.37 W/m2
20:09 81.5 °F 67.2 °F 29.64 in North 2.3 mph 1.1 mph 62% 0 in WeatherDisplay:10.37 W/m2
20:14 81.1 °F 67.3 °F 29.64 in Calm     63% 0 in WeatherDisplay:10.37 W/m2
20:19 80.8 °F 67.5 °F 29.64 in Calm     64% 0 in WeatherDisplay:10.37 W/m2
20:24 80.7 °F 67.8 °F 29.63 in Calm     65% 0 in WeatherDisplay:10.37 W/m2
20:29 80.3 °F 67.9 °F 29.64 in Calm     66% 0 in WeatherDisplay:10.37 W/m2
20:34 80 °F 68.1 °F 29.64 in Calm     67% 0 in WeatherDisplay:10.37 W/m2
20:39 79.7 °F 68.2 °F 29.63 in Calm     68% 0 in WeatherDisplay:10.37 W/m2
20:44 79.3 °F 67.8 °F 29.63 in Calm     68% 0 in WeatherDisplay:10.37 W/m2
20:49 79.1 °F 67.6 °F 29.63 in Calm     68% 0 in WeatherDisplay:10.37 W/m2
20:54 78.5 °F 67.5 °F 29.64 in Calm     69% 0 in WeatherDisplay:10.37 W/m2
20:59 78.2 °F 67.6 °F 29.64 in Calm     70% 0 in WeatherDisplay:10.37 W/m2
21:04 78 °F 67.8 °F 29.64 in Calm     71% 0 in WeatherDisplay:10.37 W/m2
21:09 77.6 °F 67.9 °F 29.64 in Calm     72% 0 in WeatherDisplay:10.37 W/m2
21:14 77.4 °F 67.7 °F 29.64 in Calm     72% 0 in WeatherDisplay:10.37 W/m2
21:19 77.2 °F 67.9 °F 29.64 in Calm     73% 0 in WeatherDisplay:10.37 W/m2
21:24 77 °F 67.7 °F 29.63 in Calm     73% 0 in WeatherDisplay:10.37 W/m2
21:29 76.9 °F 68 °F 29.63 in Calm     74% 0 in WeatherDisplay:10.37 W/m2
21:34 76.8 °F 67.9 °F 29.63 in Calm     74% 0 in WeatherDisplay:10.37 W/m2
21:39 76.8 °F 67.9 °F 29.63 in Calm     74% 0 in WeatherDisplay:10.37 W/m2
21:44 76.8 °F 68.3 °F 29.63 in Calm     75% 0 in WeatherDisplay:10.37 W/m2
21:49 76.7 °F 68.2 °F 29.63 in Calm     75% 0 in WeatherDisplay:10.37 W/m2
21:54 76.6 °F 68.1 °F 29.63 in Calm     75% 0 in WeatherDisplay:10.37 W/m2
21:59 76.5 °F 68 °F 29.63 in Calm     75% 0 in WeatherDisplay:10.37 W/m2
22:04 76.5 °F 68.7 °F 29.63 in Calm     77% 0 in WeatherDisplay:10.37 W/m2
22:09 76 °F 69.4 °F 29.62 in WNW 3.5 mph 3 mph 80% 0.06 in WeatherDisplay:10.37 W/m2
22:14 74.9 °F 69 °F 29.63 in WNW 3.5 mph 1.6 mph 82% 0.06 in WeatherDisplay:10.37 W/m2
22:19 73.7 °F 68.9 °F 29.64 in East 7 mph 5.2 mph 85% 0.06 in WeatherDisplay:10.37 W/m2
22:24 73.9 °F 68.4 °F 29.63 in ENE 3.5 mph 2.3 mph 83% 0.06 in WeatherDisplay:10.37 W/m2
22:29 74.2 °F 68.3 °F 29.63 in ENE 2.3 mph   82% 0.06 in WeatherDisplay:10.37 W/m2
22:34 74 °F 68.5 °F 29.63 in ENE 3.5 mph 1.7 mph 83% 0.06 in WeatherDisplay:10.37 W/m2
22:39 73.7 °F 68.6 °F 29.63 in ENE 2.3 mph 1.4 mph 84% 0.06 in WeatherDisplay:10.37 W/m2
22:44 73.5 °F 68.7 °F 29.63 in Calm     85% 0.06 in WeatherDisplay:10.37 W/m2
22:49 73.3 °F 68.9 °F 29.63 in Calm     86% 0.06 in WeatherDisplay:10.37 W/m2
22:54 73 °F 68.6 °F 29.64 in East 4.6 mph 1.4 mph 86% 0.06 in WeatherDisplay:10.37 W/m2
22:59 72.9 °F 68.5 °F 29.63 in East 3.5 mph 0.5 mph 86% 0.06 in WeatherDisplay:10.37 W/m2
23:04 72.8 °F 68.4 °F 29.62 in Calm     86% 0.06 in WeatherDisplay:10.37 W/m2
23:09 72.8 °F 68.7 °F 29.62 in Calm     87% 0 in WeatherDisplay:10.37 W/m2
23:14 72.7 °F 68.6 °F 29.62 in Calm     87% 0 in WeatherDisplay:10.37 W/m2
23:19 72.6 °F 68.8 °F 29.62 in Calm     88% 0 in WeatherDisplay:10.37 W/m2
23:24 72.5 °F 68.7 °F 29.61 in Calm     88% 0 in WeatherDisplay:10.37 W/m2
23:29 72.5 °F 69.1 °F 29.61 in Calm     89% 0 in WeatherDisplay:10.37 W/m2
23:34 72.3 °F 69.2 °F 29.62 in Calm     90% 0 in WeatherDisplay:10.37 W/m2
23:39 72.2 °F 69.1 °F 29.61 in Calm     90% 0 in WeatherDisplay:10.37 W/m2
23:44 72.1 °F 69.3 °F 29.61 in Calm     91% 0 in WeatherDisplay:10.37 W/m2
west seneca weather
Compliments of Weather Underground - 2 mb